Flag for Brazil Weather past 2 weeks in São Paulo, São Paulo, Brazil

Now
54 °F

Light rain. Fog.


Feels Like: 52 °F
Forecast: 51 / 59 °F
Wind: 7 mph from Southeast

Location: Sao Paulo Airport

Current Time: Jul 5, 2015 at 12:34:23 PM

Latest Report: Jul 5, 2015 at 12:00 PM


Visibility: 3 mi

Pressure: N/A (N/A at 765m altitude)

Humidity: 88%

Dew point: 50 °F

Location of São PauloLocation

Historic Weather in São Paulo — Graph

°F

São Paulo temperature yesterday

Maximum temperature yesterday: 68 °F (at 11:00 AM)
Minimum temperature yesterday: 52 °F (at 8:00 PM)
Average temperature yesterday: 60 °F

Past Weeks' High & Low Weather Summary

 TemperatureHumidityPressure
High77 °F (Jun 23, 1:00 PM)94% (Jun 24, 7:00 AM)30.54 "Hg (Jun 24, 7:00 AM)
Low52 °F (Jul 4, 8:00 PM)34% (Jun 22, 1:00 PM)29.98 "Hg (Jul 3, 3:00 PM)
Average62 °F75%30.27 "Hg
* Reported Jun 20 11:00 AM — Jul 5 11:00 AM, São Paulo, Weather by CustomWeather, © 2015

Note: Actual official high and low records may vary slightly from our data, if they occured in-between our weather recording intervals... More about our weather records

Advertising

São Paulo weather history for previous 24 hours

 ConditionsComfort  
Time TempWeatherWind HumidityBarometerVisibility
11:00 AM
Sun, Jul 5
55 °FMore clouds than sun.8 mph77%30.27 "HgN/A
10:00 AM55 °FBroken clouds.9 mph77%30.27 "HgN/A
9:00 AM54 °FCloudy.6 mph82%30.27 "HgN/A
8:00 AM54 °FMostly cloudy.8 mph82%30.27 "HgN/A
7:00 AM52 °FMostly cloudy.9 mph88%30.24 "HgN/A
6:00 AM52 °FMore clouds than sun.9 mph82%30.21 "HgN/A
5:01 AM52 °FMostly cloudy.9 mph82%30.21 "HgN/A
4:00 AM52 °FMostly cloudy.14 mph82%30.21 "HgN/A
3:00 AM52 °FPassing clouds.14 mph82%30.21 "HgN/A
2:01 AM52 °FMostly cloudy.10 mph82%30.24 "HgN/A
1:00 AM52 °FMostly cloudy.10 mph82%30.24 "HgN/A
12:00 AM52 °FOvercast.14 mph77%30.24 "HgN/A
11:00 PM
Sat, Jul 4
52 °FMostly cloudy.14 mph88%30.24 "Hg6 mi
10:00 PM52 °FOvercast.8 mph88%30.21 "Hg4 mi
9:00 PM52 °FLight rain. Mostly cloudy.10 mph88%30.21 "Hg5 mi
8:00 PM52 °FLight rain. Fog.12 mph88%30.18 "Hg2 mi
7:00 PM54 °FLight rain. Mostly cloudy.13 mph88%30.15 "Hg4 mi
6:00 PM54 °FLight rain. Mostly cloudy.15 mph88%30.15 "Hg6 mi
5:00 PM55 °FLight rain. Mostly cloudy.13 mph94%30.09 "Hg6 mi
4:00 PM57 °FDrizzle. Cloudy.13 mph88%30.09 "Hg4 mi
3:00 PM59 °FLight rain. Fog.13 mph88%30.07 "Hg2 mi
2:00 PM61 °FLight rain. Fog.12 mph88%30.07 "Hg2 mi
1:00 PM66 °FLight rain. Mostly cloudy.6 mph78%30.07 "Hg2 mi
12:00 PM68 °FPartly sunny.7 mph73%30.07 "HgN/A
Weather by CustomWeather, © 2015

See weather overviewHow to use our weather pages